This demonstration page uses our WeatherBlox Daily Observations layout. Learn more.

Left ArrowRight Arrow

41.55636, -103.73856

Hourly Observations for March 30, 2021

Temp ( °F °C ) Dew Point ( °F °C ) Humidity (%) Winds ( mph kmh ) Pressure ( in mb ) Visibility ( mi km ) Precip ( " mm )
12:58 am 00:58 Cloudy 27 -3 14 -10.2 58 58 NNW 20 31 29.83 1010 10 16 0.00 0.00
1:58 am 01:58 Mostly Cloudy 25 -3.7 17 -8.6 69 69 NW 15 24 29.85 1011 10 16 0.00 0.00
2:58 am 02:58 Mostly Cloudy 26 -3.6 15 -9.2 66 66 NNW 13 20 29.85 1011 10 16 0.00 0.00
3:58 am 03:58 Mostly Cloudy 25 -4 14 -9.9 64 64 N 13 20 29.88 1012 10 16 0.00 0.00
4:58 am 04:58 Cloudy 25 -3.7 13 -10.8 58 58 NNW 6 9 29.97 1015 10 16 0.00 0.00
5:58 am 05:58 Mostly Cloudy 23 -5.2 15 -9.3 73 73 Calm 30.05 1018 10 16 0.00 0.00
6:58 am 06:58 Mostly Sunny 21 -6.1 14 -9.8 75 75 SSW 7 11 30.14 1021 10 16 0.00 0.00
7:58 am 07:58 Sunny 26 -3.1 10 -12.5 49 49 NNW 10 17 30.13 1020 10 16 0.00 0.00
8:58 am 08:58 Sunny 28 -2.4 11 -11.6 50 50 NNW 12 19 30.14 1021 10 16 0.00 0.00
9:58 am 09:58 Sunny 28 -2 13 -10.7 52 52 N 12 19 30.16 1021 10 16 0.00 0.00
10:58 am 10:58 Partly Cloudy 30 -1.3 11 -11.7 45 45 N 9 15 30.17 1022 10 16 0.00 0.00
11:58 am 11:58 Partly Cloudy 31 -0.6 10 -12.3 41 41 NNW 16 26 30.17 1022 10 16 0.00 0.00
12:58 pm 12:58 Partly Cloudy 33 0.4 12 -11.3 41 41 NW 18 30 30.17 1022 10 16 0.00 0.00
1:58 pm 13:58 Mostly Sunny 34 1.2 9 -12.7 35 35 NW 24 39 30.14 1021 10 16 0.00 0.00
2:58 pm 14:58 Mostly Sunny 36 2 8 -13.6 31 31 NNW 13 20 30.12 1020 10 16 0.00 0.00
3:58 pm 15:58 Mostly Sunny 36 2.3 8 -13.1 31 31 N 16 26 30.14 1021 10 16 0.00 0.00
4:58 pm 16:58 Sunny 36 2.2 9 -12.8 32 32 NNW 17 28 30.16 1021 10 16 0.00 0.00
5:58 pm 17:58 Mostly Sunny 35 1.4 11 -11.7 37 37 N 14 22 30.19 1022 10 16 0.00 0.00
6:58 pm 18:58 Mostly Cloudy 32 0 11 -11.7 41 41 NNW 10 17 30.24 1024 10 16 0.00 0.00
7:58 pm 19:58 Cloudy 31 -0.7 11 -11.7 44 44 NNW 10 17 30.27 1025 10 16 0.00 0.00
8:58 pm 20:58 Clear 27 -2.6 15 -9.4 60 60 N 8 13 30.32 1027 10 16 0.00 0.00
9:58 pm 21:58 Partly Cloudy 27 -2.6 13 -10.6 55 55 NNE 3 6 30.34 1027 10 16 0.00 0.00
10:58 pm 22:58 Clear 25 -4.1 13 -10.4 62 62 ENE 8 13 30.36 1028 10 16 0.00 0.00
11:58 pm 23:58 Clear 24 -4.7 11 -11.7 58 58 ESE 3 6 30.38 1029 10 16 0.00 0.00

Powered by AerisWeather